BEEAGLESAT (42736 NORAD) Tracking and Keplerian Element Data

This shows tracking and keplerian element data for the satellite.

Feedback or suggestion? Click here.




ElementValue
Catalog42736
NameBEEAGLESAT
Epoch Orbit10921
Epoch Day111.70009971
Epoch Year2019
RAAN199.3771
Inclination51.6188
Eccentricity0.0011845
Argument of Perigee348.0132
Mean Anonmoly12.0601
Mean Motion16.16306129
Decay Rate0.00888649
L11 42736U 98067MR 19111.70009971 .00888649 51855-3 58922-3 0 9997
L22 42736 51.6188 199.3771 0011845 348.0132 12.0601 16.16306129109218

Live tracking and technical data element details for BEEAGLESAT (NORAD 42736). BEEAGLESAT can be tracked NOW for your location showing map with azimuth and elevation plus other details from your city location.

Track the satellite on the map from your city or location and see movement details for azimuth, elevation, latitude, longitude, range, height, and movement on the map or in text.







IsCatalogInMostPopularTable: catalog: 42736, numindb: 235
Update: records affected: 1



GetName: 42736 BEEAGLESAT

Hit Count: updated at: Tue, 23 Apr 2019 02:39:11 GMT